JA0QEV-13 Weather Reports


time (UTC)temp
C
wind
direction
speed
KPH
gust
KPH
rain 1hr
cm
rain 24hr
cm
rain mn
cm
humidity
%
barometer
mb
20260508231318 12 100 6.4 29.0 0.00 0.58 0.10 77 1013.7
20260508230829 12 107 14.5 22.5 0.00 0.58 0.10 78 1013.8
20260508230318 12 183 6.4 14.5 0.00 0.58 0.10 79 1013.8
20260508225825 12 192 3.2 20.9 0.00 0.58 0.10 79 1013.6
20260508225355 12 88 8.0 27.4 0.00 0.58 0.10 78 1013.6
20260508224825 12 120 9.7 29.0 0.00 0.58 0.10 78 1013.6
20260508224335 12 104 11.3 29.0 0.00 0.58 0.10 78 1013.8
20260508223826 12 127 8.0 24.1 0.03 0.58 0.10 79 1013.7
20260508223317 12 79 9.7 32.2 0.05 0.58 0.10 79 1013.6
20260508222843 12 160 4.8 32.2 0.10 0.58 0.10 80 1013.4
20260508222337 12 108 14.5 35.4 0.10 0.58 0.10 80 1013.4
20260508221827 12 124 9.7 27.4 0.10 0.58 0.10 81 1013.1
20260508221318 12 89 11.3 38.6 0.10 0.58 0.10 81 1012.9
20260508220829 12 95 22.5 38.6 0.10 0.58 0.10 81 1012.9
20260508220339 12 179 19.3 41.8 0.10 0.58 0.10 85 1012.8
20260508215825 11 82 12.9 41.8 0.10 0.58 0.10 86 1012.4
20260508215334 11 120 14.5 33.8 0.10 0.58 0.10 88 1012.2
20260508214824 11 104 17.7 46.7 0.10 0.58 0.10 89 1012.0
20260508214335 11 80 19.3 64.4 0.10 0.58 0.10 90 1011.6
20260508213826 11 101 33.8 64.4 0.08 0.56 0.08 89 1011.5
20260508213334 11 100 29.0 46.7 0.05 0.53 0.05 86 1011.0
20260508212844 12 82 30.6 57.9 0.00 0.48 0.00 82 1010.8
20260508212355 12 116 32.2 57.9 0.00 0.48 0.00 78 1010.5
20260508211824 13 86 22.5 38.6 0.00 0.48 0.00 75 1010.4
20260508211336 13 87 24.1 38.6 0.00 0.48 0.00 74 1010.0
20260508210826 13 84 19.3 37.0 0.00 0.48 0.00 73 1009.9
20260508210316 12 82 20.9 37.0 0.00 0.48 0.00 73 1009.6
20260508205822 12 82 20.9 35.4 0.00 0.48 0.00 73 1009.5
20260508205333 12 79 17.7 43.5 0.00 0.48 0.00 73 1009.4
20260508204824 12 97 24.1 43.5 0.00 0.48 0.00 73 1009.0
20260508204333 12 64 22.5 40.2 0.00 0.48 0.00 73 1009.1
20260508203821 12 79 17.7 40.2 0.00 0.48 0.00 73 1009.0
20260508203330 12 81 16.1 41.8 0.00 0.48 0.00 72 1008.9
20260508202822 12 84 17.7 41.8 0.00 0.48 0.00 71 1008.7
20260508202333 13 55 20.9 38.6 0.00 0.48 0.00 69 1008.5
20260508201824 13 84 20.9 41.8 0.00 0.48 0.00 68 1008.3
20260508201332 13 98 24.1 48.3 0.00 0.48 0.00 68 1008.2
20260508200824 13 77 25.7 48.3 0.00 0.48 0.00 68 1008.2
20260508195818 13 80 29.0 51.5 0.00 0.48 0.00 66 1007.8
20260508195329 13 90 25.7 40.2 0.00 0.48 0.00 64 1007.7
20260508194820 13 34 16.1 43.5 0.00 0.48 0.00 64 1007.4
20260508194331 13 91 20.9 43.5 0.00 0.48 0.00 63 1007.4
20260508193842 13 95 19.3 59.5 0.00 0.48 0.00 63 1007.1
20260508193336 13 109 16.1 30.6 0.00 0.48 0.00 64 1007.0
20260508192822 13 105 11.3 38.6 0.00 0.48 0.00 64 1006.9
20260508192333 13 101 19.3 48.3 0.00 0.48 0.00 64 1006.8
20260508191824 13 117 25.7 48.3 0.00 0.48 0.00 64 1006.6
20260508191335 13 98 17.7 37.0 0.00 0.48 0.00 65 1006.4
20260508190826 13 101 17.7 45.1 0.00 0.48 0.00 65 1006.2
20260508190337 13 81 25.7 45.1 0.00 0.48 0.00 64 1006.3
20260508185819 13 120 24.1 43.5 0.00 0.48 0.00 64 1006.3
20260508185330 13 108 14.5 35.4 0.00 0.48 0.00 65 1006.0
20260508184825 13 82 24.1 38.6 0.00 0.48 0.00 64 1006.0
20260508184354 13 94 22.5 38.6 0.00 0.48 0.00 64 1006.0
20260508183824 13 82 24.1 37.0 0.00 0.48 0.00 63 1006.0
20260508183334 13 116 17.7 29.0 0.00 0.48 0.00 65 1005.9
20260508182842 13 124 16.1 32.2 0.00 0.48 0.00 65 1005.8
20260508182327 13 97 17.7 35.4 0.00 0.48 0.00 65 1005.6
20260508181818 13 110 22.5 35.4 0.00 0.48 0.00 64 1005.7
20260508181349 13 106 20.9 35.4 0.00 0.48 0.00 66 1005.6
20260508180838 13 92 20.9 38.6 0.00 0.48 0.00 66 1005.3
20260508180328 12 84 25.7 45.1 0.00 0.48 0.00 66 1005.4
20260508175835 12 80 24.1 41.8 0.00 0.48 0.00 67 1005.2
20260508175324 12 96 22.5 41.8 0.00 0.48 0.00 68 1005.4
20260508174834 12 112 25.7 53.1 0.00 0.48 0.00 67 1005.2
20260508174344 13 84 25.7 61.2 0.00 0.48 0.00 65 1005.3
20260508173853 14 113 30.6 45.1 0.00 0.48 0.00 59 1005.3
20260508173326 13 92 22.5 37.0 0.00 0.48 0.00 55 1005.0
20260508172833 13 117 3.2 14.5 0.00 0.48 0.00 56 1005.0
20260508172344 13 67 4.8 11.3 0.00 0.48 0.00 55 1004.7
20260508171834 13 129 1.6 4.8 0.00 0.48 0.00 54 1004.8
20260508171325 13 105 1.6 12.9 0.00 0.48 0.00 53 1004.9
20260508170834 14 147 0.0 16.1 0.00 0.48 0.00 53 1004.8
20260508170326 13 165 1.6 11.3 0.00 0.48 0.00 53 1005.0
20260508165851 13 153 1.6 4.8 0.00 0.48 0.00 53 1004.9
20260508165339 13 143 1.6 6.4 0.00 0.48 0.00 52 1005.1
20260508164826 13 146 1.6 6.4 0.00 0.48 0.00 51 1005.1
20260508164336 13 136 1.6 4.8 0.00 0.48 0.00 51 1005.2
20260508163825 13 173 1.6 6.4 0.00 0.48 0.00 51 1005.1
20260508163335 13 157 3.2 8.0 0.00 0.48 0.00 50 1005.2
20260508162820 13 108 3.2 8.0 0.00 0.48 0.00 50 1005.1
20260508162329 13 205 0.0 4.8 0.00 0.48 0.00 50 1005.2
20260508161824 13 103 1.6 4.8 0.00 0.48 0.00 50 1005.4
20260508161332 14 164 0.0 12.9 0.00 0.48 0.00 49 1005.6
20260508160843 15 90 6.4 14.5 0.00 0.48 0.00 44 1005.7
20260508160332 15 98 8.0 14.5 0.00 0.48 0.00 44 1005.7
20260508155819 14 120 1.6 6.4 0.00 0.48 0.00 44 1005.8
20260508155330 15 124 0.0 6.4 0.00 0.48 0.00 41 1005.9
20260508154819 15 115 1.6 8.0 0.00 0.48 0.00 43 1005.9
20260508154328 14 51 3.2 8.0 0.00 0.48 0.00 44 1006.0
20260508153837 15 70 1.6 12.9 0.00 0.48 0.00 45 1006.1
20260508153326 15 136 4.8 12.9 0.00 0.48 0.00 45 1006.3
20260508152831 15 128 6.4 19.3 0.00 0.48 0.00 45 1006.5
20260508152401 15 117 4.8 22.5 0.00 0.48 0.00 45 1006.5
20260508151827 15 96 12.9 22.5 0.00 0.48 0.00 43 1006.5
20260508151318 15 107 12.9 22.5 0.00 0.48 0.00 41 1006.7
20260508150829 15 89 12.9 22.5 0.00 0.48 0.00 40 1006.7
20260508150322 15 89 12.9 22.5 0.00 0.48 0.00 40 1006.7
20260508145849 15 89 12.9 33.8 0.00 0.48 0.48 40 1006.8
20260508145319 15 75 16.1 25.7 0.00 0.48 0.48 40 1006.9
20260508144850 15 97 14.5 25.7 0.00 0.48 0.48 41 1007.0
20260508144318 15 96 16.1 25.7 0.00 0.48 0.48 45 1006.9
20260508143829 15 98 16.1 30.6 0.00 0.48 0.48 45 1006.9
20260508143340 15 88 19.3 41.8 0.00 0.48 0.48 45 1007.0
20260508142823 15 101 22.5 46.7 0.00 0.48 0.48 45 1006.7
20260508142334 15 84 22.5 46.7 0.00 0.48 0.48 46 1006.6
20260508141824 15 72 14.5 32.2 0.00 0.48 0.48 49 1006.2
20260508141354 15 85 11.3 29.0 0.00 0.48 0.48 51 1006.3
20260508140842 15 90 6.4 16.1 0.00 0.48 0.48 52 1006.3
20260508140331 14 46 6.4 33.8 0.00 0.48 0.48 53 1006.2
20260508135822 15 68 8.0 33.8 0.00 0.48 0.48 53 1006.2
20260508135353 14 105 8.0 16.1 0.00 0.48 0.48 58 1006.1
20260508134821 14 110 4.8 14.5 0.00 0.48 0.48 60 1005.9
20260508134330 14 66 6.4 14.5 0.00 0.48 0.48 59 1006.0
20260508133819 14 108 4.8 17.7 0.00 0.48 0.48 63 1006.0
20260508133328 14 103 4.8 11.3 0.00 0.48 0.48 63 1005.9
20260508132835 14 99 1.6 14.5 0.00 0.48 0.48 63 1006.0
20260508132325 15 99 1.6 25.7 0.00 0.48 0.48 64 1006.0
20260508131835 15 88 14.5 25.7 0.00 0.48 0.48 63 1006.1
20260508131326 15 87 12.9 19.3 0.00 0.48 0.48 66 1006.3
20260508130835 15 122 4.8 32.2 0.00 0.48 0.48 66 1006.3
20260508130326 15 80 19.3 32.2 0.00 0.48 0.48 66 1006.2
20260508125833 15 32 12.9 27.4 0.00 0.48 0.48 68 1006.3
20260508125328 15 88 9.7 24.1 0.00 0.48 0.48 69 1006.2
20260508124818 15 106 8.0 20.9 0.00 0.48 0.48 70 1006.2
20260508124328 14 92 11.3 20.9 0.00 0.48 0.48 71 1006.2
20260508123817 14 103 4.8 12.9 0.00 0.48 0.48 72 1006.1
20260508123328 15 118 3.2 16.1 0.00 0.48 0.48 72 1006.2
20260508122835 15 123 3.2 22.5 0.00 0.48 0.48 71 1006.3
20260508122326 15 91 12.9 22.5 0.00 0.48 0.48 71 1006.3
20260508121817 15 191 6.4 30.6 0.00 0.48 0.48 71 1006.4
20260508121327 15 109 17.7 30.6 0.00 0.48 0.48 69 1006.5
20260508120835 15 94 11.3 25.7 0.00 0.48 0.48 71 1006.5
20260508120324 15 78 11.3 33.8 0.00 0.48 0.48 71 1006.4
20260508115829 15 90 22.5 33.8 0.00 0.48 0.48 68 1006.4
20260508115324 15 113 14.5 33.8 0.00 0.48 0.48 69 1006.6
20260508114835 15 96 12.9 33.8 0.00 0.48 0.48 70 1006.5
20260508114326 15 82 16.1 33.8 0.00 0.48 0.48 69 1006.3
20260508113836 15 114 17.7 32.2 0.00 0.48 0.48 71 1006.3
20260508113326 15 92 14.5 37.0 0.00 0.48 0.48 73 1006.3
20260508112833 15 91 16.1 37.0 0.00 0.48 0.48 73 1006.2
20260508112320 15 113 19.3 33.8 0.00 0.48 0.48 75 1006.2
20260508111830 15 100 19.3 29.0 0.00 0.48 0.48 75 1006.2
20260508111320 15 88 17.7 33.8 0.00 0.48 0.48 75 1006.1
20260508110851 15 105 22.5 35.4 0.00 0.48 0.48 75 1006.0
20260508110321 15 111 16.1 35.4 0.00 0.48 0.48 76 1005.8
20260508105832 15 79 17.7 32.2 0.00 0.48 0.48 74 1005.9
20260508105321 15 101 19.3 29.0 0.00 0.48 0.48 74 1006.0
20260508104831 15 85 11.3 29.0 0.00 0.48 0.48 77 1006.1
20260508104322 15 102 14.5 29.0 0.00 0.48 0.48 77 1006.0
20260508103853 15 131 9.7 19.3 0.00 0.48 0.48 80 1006.0
20260508103342 15 111 11.3 24.1 0.00 0.48 0.48 81 1006.0
20260508102828 15 95 9.7 27.4 0.00 0.48 0.48 82 1005.8
20260508102317 15 79 9.7 32.2 0.00 0.48 0.48 82 1005.7
20260508101827 15 134 12.9 32.2 0.03 0.48 0.48 82 1005.8
20260508101318 15 117 16.1 33.8 0.03 0.48 0.48 82 1005.7
20260508100828 15 86 14.5 33.8 0.05 0.48 0.48 82 1005.6
20260508100323 14 85 14.5 27.4 0.08 0.48 0.48 83 1005.6
20260508095831 15 114 12.9 40.2 0.08 0.48 0.48 83 1005.6
20260508095323 15 74 19.3 40.2 0.13 0.48 0.48 82 1005.5
20260508094834 15 116 25.7 38.6 0.15 0.48 0.48 82 1005.6
20260508094343 15 77 17.7 33.8 0.18 0.48 0.48 85 1005.4
20260508093831 14 92 14.5 30.6 0.18 0.48 0.48 87 1005.2
20260508093322 15 85 16.1 38.6 0.18 0.48 0.48 88 1005.1
20260508092829 15 96 17.7 38.6 0.20 0.48 0.48 88 1005.0
20260508092319 15 72 14.5 24.1 0.20 0.48 0.48 90 1004.8
20260508091830 15 127 6.4 12.9 0.18 0.46 0.46 92 1004.6
20260508091324 15 123 3.2 14.5 0.18 0.46 0.46 92 1004.6
20260508090835 15 105 3.2 16.1 0.18 0.43 0.43 92 1004.6
20260508090344 15 132 4.8 9.7 0.18 0.41 0.41 92 1004.6
20260508085827 15 110 4.8 8.0 0.18 0.41 0.41 92 1004.4
20260508085357 15 131 3.2 11.3 0.18 0.36 0.36 91 1004.2
20260508084826 15 176 1.6 6.4 0.15 0.33 0.33 91 1003.9
20260508084336 15 181 1.6 6.4 0.18 0.30 0.30 90 1004.0
20260508083825 15 157 1.6 9.7 0.20 0.30 0.30 90 1003.9
20260508083333 15 163 3.2 14.5 0.25 0.30 0.30 90 1004.0
20260508082820 15 192 4.8 14.5 0.28 0.28 0.28 89 1003.9
20260508082350 15 122 3.2 11.3 0.28 0.28 0.28 89 1004.0
20260508081819 15 150 3.2 11.3 0.28 0.28 0.28 88 1003.8
20260508081329 15 129 1.6 12.9 0.28 0.28 0.28 87 1004.0
20260508080824 15 139 6.4 12.9 0.25 0.25 0.25 87 1003.8
20260508080335 16 104 1.6 8.0 0.23 0.23 0.23 88 1004.0
20260508075841 16 114 1.6 6.4 0.20 0.20 0.20 89 1003.7
20260508075330 16 148 1.6 19.3 0.18 0.18 0.18 89 1003.9
20260508074821 16 108 3.2 19.3 0.18 0.18 0.18 89 1003.9
20260508074331 16 98 4.8 27.4 0.13 0.13 0.13 89 1003.6
20260508073821 16 91 9.7 32.2 0.10 0.10 0.10 87 1003.4
20260508073329 17 89 16.1 32.2 0.05 0.05 0.05 85 1003.5
20260508072856 17 107 12.9 29.0 0.00 0.00 0.00 82 1003.4
20260508072323 17 91 17.7 29.0 0.00 0.00 0.00 80 1003.1
20260508071831 18 136 9.7 20.9 0.00 0.00 0.00 81 1003.0
20260508071321 18 103 8.0 25.7 0.00 0.00 0.00 80 1002.9
20260508070832 18 134 12.9 25.7 0.00 0.00 0.00 79 1002.9
20260508070327 18 109 9.7 16.1 0.00 0.00 0.00 79 1003.0
20260508065835 18 113 6.4 33.8 0.00 0.00 0.00 78 1002.9
20260508065323 18 141 11.3 33.8 0.00 0.00 0.00 76 1002.8
20260508064834 18 86 4.8 19.3 0.00 0.00 0.00 75 1002.8
20260508064326 18 146 3.2 8.0 0.00 0.00 0.00 75 1002.6
20260508063834 19 130 1.6 11.3 0.00 0.00 0.00 74 1002.6
20260508063323 19 127 3.2 19.3 0.00 0.00 0.00 74 1002.7
20260508062829 19 94 9.7 19.3 0.00 0.00 0.00 74 1002.6
20260508062317 19 79 11.3 27.4 0.00 0.00 0.00 74 1002.6
20260508061828 19 81 16.1 27.4 0.00 0.00 0.00 74 1002.6
20260508061319 19 113 9.7 22.5 0.00 0.00 0.00 74 1002.6
20260508060850 19 91 12.9 22.5 0.00 0.00 0.00 74 1002.6
20260508060317 20 103 14.5 25.7 0.00 0.00 0.00 73 1002.6
20260508055822 20 81 12.9 19.3 0.00 0.00 0.00 74 1002.5
20260508055336 20 98 6.4 19.3 0.00 0.00 0.00 73 1002.5
20260508054828 20 94 4.8 20.9 0.00 0.00 0.00 73 1002.5
20260508054318 20 141 8.0 24.1 0.00 0.00 0.00 73 1002.5
20260508053827 20 91 11.3 24.1 0.00 0.00 0.00 72 1002.6
20260508053335 20 97 4.8 17.7 0.00 0.00 0.00 73 1002.5
20260508052820 20 106 6.4 17.7 0.00 0.00 0.00 73 1002.4
20260508052331 20 146 3.2 12.9 0.00 0.00 0.00 74 1002.4
20260508051819 20 136 4.8 12.9 0.00 0.00 0.00 74 1002.6
20260508051330 20 104 3.2 9.7 0.00 0.00 0.00 75 1002.7
20260508050821 20 158 3.2 14.5 0.00 0.00 0.00 76 1002.9
20260508050331 20 130 3.2 14.5 0.00 0.00 0.00 75 1002.7
20260508045823 20 164 3.2 14.5 0.00 0.00 0.00 75 1003.0
20260508045333 20 151 6.4 19.3 0.00 0.00 0.00 74 1003.3
20260508044823 20 109 6.4 19.3 0.00 0.00 0.00 74 1003.2
20260508044334 20 150 3.2 14.5 0.00 0.00 0.00 74 1002.8
20260508043825 20 91 4.8 19.3 0.00 0.00 0.00 74 1003.1
20260508043335 20 174 9.7 25.7 0.00 0.00 0.00 73 1003.2
20260508042821 20 86 6.4 25.7 0.00 0.00 0.00 75 1003.3
20260508042331 20 79 4.8 14.5 0.00 0.00 0.00 76 1003.4
20260508041841 19 186 6.4 14.5 0.00 0.00 0.00 77 1003.4
20260508041331 19 81 1.6 14.5 0.00 0.00 0.00 78 1003.5
20260508040842 18 103 4.8 22.5 0.00 0.00 0.00 79 1003.7
20260508040335 18 112 6.4 22.5 0.00 0.00 0.00 79 1003.9
20260508035822 18 144 4.8 17.7 0.00 0.00 0.00 79 1003.8
20260508035333 18 75 8.0 17.7 0.00 0.00 0.00 80 1003.9
20260508034822 18 97 4.8 19.3 0.00 0.00 0.00 80 1003.9
20260508034330 18 96 11.3 37.0 0.00 0.00 0.00 79 1003.9
20260508033821 18 107 11.3 22.5 0.00 0.00 0.00 78 1004.3
20260508033352 19 94 8.0 22.5 0.00 0.00 0.00 78 1004.2
20260508032835 19 102 4.8 12.9 0.00 0.00 0.00 77 1004.2
20260508032323 19 122 3.2 12.9 0.00 0.00 0.00 76 1004.2
20260508031831 20 124 4.8 19.3 0.00 0.00 0.00 74 1004.4
20260508031319 20 80 8.0 24.1 0.00 0.00 0.00 73 1004.4
20260508030829 20 99 4.8 11.3 0.00 0.00 0.00 71 1004.2
20260508030319 20 132 6.4 11.3 0.00 0.00 0.00 68 1004.4
20260508025825 20 117 1.6 8.0 0.00 0.00 0.00 67 1004.5
20260508025334 20 171 4.8 11.3 0.00 0.00 0.00 67 1004.3
20260508024824 21 141 4.8 12.9 0.00 0.00 0.00 66 1004.5
20260508024318 21 162 6.4 12.9 0.00 0.00 0.00 67 1004.4
20260508023828 21 153 1.6 14.5 0.00 0.00 0.00 68 1004.4
20260508023319 21 116 6.4 14.5 0.00 0.00 0.00 69 1004.5
20260508022827 21 105 4.8 17.7 0.00 0.00 0.00 66 1004.4
20260508022318 21 238 3.2 16.1 0.00 0.00 0.00 68 1004.5
20260508021849 21 165 4.8 12.9 0.00 0.00 0.00 67 1004.4
20260508021318 21 146 4.8 19.3 0.00 0.00 0.00 64 1004.5
20260508020828 22 100 6.4 14.5 0.00 0.00 0.00 62 1004.6
20260508020319 22 118 6.4 16.1 0.00 0.00 0.00 59 1004.5
20260508015825 23 110 9.7 19.3 0.00 0.00 0.00 61 1004.4
20260508015320 23 156 6.4 19.3 0.00 0.00 0.00 64 1004.2
20260508014851 23 95 6.4 16.1 0.00 0.00 0.00 64 1004.0
20260508014320 23 96 6.4 14.5 0.00 0.00 0.00 63 1004.1
20260508013829 24 100 4.8 9.7 0.00 0.00 0.00 61 1004.0
20260508013318 23 169 1.6 8.0 0.00 0.00 0.00 57 1003.9
20260508012845 23 158 4.8 6.4 0.00 0.00 0.00 56 1003.9
20260508012333 23 184 4.8 9.7 0.00 0.00 0.00 54 1003.9
20260508011823 23 178 6.4 9.7 0.00 0.00 0.00 54 1003.9
20260508011354 23 184 4.8 8.0 0.00 0.00 0.00 54 1004.0
20260508010824 23 216 3.2 6.4 0.00 0.00 0.00 57 1004.0
20260508010354 23 131 1.6 6.4 0.00 0.00 0.00 57 1004.0
20260508005820 24 129 1.6 8.0 0.00 0.00 0.00 57 1004.0
20260508005329 23 144 3.2 8.0 0.00 0.00 0.00 58 1004.0
20260508004839 23 102 3.2 6.4 0.00 0.00 0.00 64 1003.9
20260508004328 22 96 1.6 4.8 0.00 0.00 0.00 64 1004.0
20260508003819 22 126 0.0 3.2 0.00 0.00 0.00 65 1003.9
20260508003328 22 144 1.6 3.2 0.00 0.00 0.00 66 1004.1
20260508002819 21 275 1.6 3.2 0.00 0.00 0.00 66 1004.3
20260508002330 21 163 1.6 4.8 0.00 0.00 0.00 67 1004.4
20260508001821 21 198 1.6 4.8 0.00 0.00 0.00 64 1004.3
20260508001332 21 149 0.0 1.6 0.00 0.00 0.00 66 1004.6
20260508000842 21 127 0.0 4.8 0.00 0.00 0.00 67 1004.9
20260508000329 21 158 1.6 6.4 0.00 0.00 0.00 68 1004.8
20260507235855 21 186 1.6 8.0 0.00 0.00 0.00 68 1004.7
20260507235322 21 277 4.8 8.0 0.00 0.00 0.00 69 1004.8
20260507234831 20 136 1.6 3.2 0.00 0.00 0.00 71 1004.9
20260507234319 20 231 1.6 3.2 0.00 0.00 0.00 74 1004.9
20260507233827 19 233 0.0 3.2 0.00 0.00 0.00 76 1004.9
20260507233334 18 233 1.6 4.8 0.00 0.00 0.00 77 1004.9
20260507232818 18 219 1.6 4.8 0.00 0.00 0.00 77 1005.0
20260507232329 18 192 1.6 3.2 0.00 0.00 0.00 77 1004.9
20260507231820 18 164 0.0 0.0 0.00 0.00 0.00 77 1005.1